DeKalb, IL

1:04 AM CDT on June 24, 2017 (GMT -0500)
De Kalb Taylor Municipal

Weather History for KDKB - November, 2012

Change the Weather History Date:

Saturday, November 10, 2012

  Actual Average (KARR) Record (KARR)
Temperature  
Mean Temperature 58 °F -  
Max Temperature 66 °F 47 °F 71 °F (2010)
Min Temperature 50 °F 29 °F 19 °F (2007)
Degree Days  
Heating Degree Days 7    
Growing Degree Days 8 (Base 50)    
Moisture  
Dew Point 52 °F    
Average Humidity 81    
Maximum Humidity 91    
Minimum Humidity 70    
Precipitation  
Precipitation 0.00 in - - ()
Sea Level Pressure  
Sea Level Pressure 29.91 in    
Wind  
Wind Speed 11 mph (SSE)    
Max Wind Speed 29 mph    
Max Gust Speed 32 mph    
Visibility 9 miles    
Events Rain , Thunderstorm    
Averages and records for this station are not official NWS values.
T = Trace of Precipitation, MM = Missing Value Source: NWS Daily Summary

Daily Weather History Graph

Daily Weather History Graph

Search for Another Location

Airport or City:

Trip Planner

Search our weather history database for the weather conditions in past years. The results will help you decide how hot, cold, wet, or windy it might be!

Date:

Astronomy

Nov. 10, 2012 Rise Set
Actual Time 6:39 AM CST 4:38 PM CST
Civil Twilight 6:09 AM CST 5:07 PM CST
Nautical Twilight 5:35 AM CST 5:41 PM CST
Astronomical Twilight 5:03 AM CST 6:13 PM CST
Moon 2:40 AM CST (11/10) 2:27 PM CST (11/10)
Length of Visible Light 10h 58m
Length of Day
9h 59m
Waning Crescent, 14% of the Moon is Illuminated
Nov 10
Waning Crescent
Nov 13
New
Nov 20
First Quarter
Nov 28
Full
Dec 6
Last Quarter

Hourly Weather History & Observations

Time (CST) Temp. Dew Point Humidity Pressure Visibility Wind Dir Wind Speed Gust Speed Precip Events Conditions
12:15 AM 52.2 °F 47.5 °F 84% 29.99 in 7.0 mi East 4.6 mph - N/A   Overcast
12:35 AM 52.5 °F 47.7 °F 84% 29.98 in 7.0 mi East 4.6 mph - N/A   Overcast
12:55 AM 52.9 °F 48.0 °F 84% 29.97 in 7.0 mi East 5.8 mph - N/A   Overcast
1:15 AM 52.9 °F 48.2 °F 84% 29.98 in 7.0 mi East 6.9 mph - N/A   Overcast
1:35 AM 52.7 °F 48.0 °F 84% 29.97 in 7.0 mi East 5.8 mph - N/A   Overcast
1:55 AM 52.9 °F 48.2 °F 84% 29.98 in 10.0 mi ESE 6.9 mph - N/A   Overcast
2:15 AM 52.9 °F 48.2 °F 84% 29.97 in 10.0 mi ESE 6.9 mph - N/A   Overcast
2:35 AM 51.8 °F 47.1 °F 84% 29.97 in 10.0 mi SE 6.9 mph - N/A   Mostly Cloudy
2:55 AM 51.8 °F 47.3 °F 85% 29.97 in 10.0 mi SE 6.9 mph - N/A   Scattered Clouds
3:35 AM 51.8 °F 47.5 °F 85% 29.96 in 10.0 mi SE 8.1 mph - N/A   Overcast
3:55 AM 52.9 °F 48.7 °F 86% 29.96 in 7.0 mi SE 10.4 mph - N/A   Overcast
4:15 AM 51.8 °F 48.0 °F 87% 29.95 in 7.0 mi SE 10.4 mph - N/A   Mostly Cloudy
4:35 AM 50.9 °F 47.5 °F 88% 29.96 in 7.0 mi SE 10.4 mph - N/A   Mostly Cloudy
4:55 AM 51.1 °F 47.8 °F 89% 29.96 in 7.0 mi SE 8.1 mph - N/A   Mostly Cloudy
5:15 AM 51.6 °F 48.2 °F 88% 29.95 in 7.0 mi SE 10.4 mph - N/A   Overcast
5:35 AM 51.3 °F 48.4 °F 90% 29.96 in 7.0 mi SSE 11.5 mph - N/A   Mostly Cloudy
5:55 AM 51.8 °F 48.2 °F 88% 29.95 in 7.0 mi SE 9.2 mph - N/A   Mostly Cloudy
6:15 AM 52.3 °F 49.5 °F 90% 29.94 in 7.0 mi SE 11.5 mph - N/A   Mostly Cloudy
6:35 AM 51.8 °F 48.7 °F 89% 29.94 in 5.0 mi SE 11.5 mph - N/A   Scattered Clouds
6:55 AM 51.8 °F 48.7 °F 89% 29.95 in 4.0 mi SE 11.5 mph - N/A   Clear
7:15 AM 52.5 °F 49.8 °F 91% 29.95 in 5.0 mi SE 11.5 mph - N/A   Mostly Cloudy
7:55 AM 53.2 °F 50.2 °F 89% 29.95 in 7.0 mi SSE 12.7 mph - N/A   Mostly Cloudy
8:15 AM 54.7 °F 50.9 °F 87% 29.96 in 10.0 mi SSE 13.8 mph - N/A   Mostly Cloudy
8:35 AM 54.9 °F 50.9 °F 86% 29.95 in 10.0 mi SSE 15.0 mph 18.4 mph N/A   Overcast
8:55 AM 55.4 °F 51.1 °F 85% 29.94 in 10.0 mi SSE 15.0 mph - N/A   Mostly Cloudy
9:15 AM 55.4 °F 51.8 °F 88% 29.94 in 10.0 mi SSE 16.1 mph - N/A   Mostly Cloudy
9:35 AM 55.6 °F 51.3 °F 85% 29.94 in 10.0 mi SSE 12.7 mph - N/A   Overcast
9:55 AM 57.6 °F 52.5 °F 83% 29.95 in 10.0 mi South 13.8 mph - N/A   Overcast
10:15 AM 59.2 °F 52.0 °F 77% 29.93 in 10.0 mi South 17.3 mph 21.9 mph N/A   Scattered Clouds
10:35 AM 58.1 °F 51.8 °F 80% 29.93 in 10.0 mi South 15.0 mph - N/A   Scattered Clouds
10:55 AM 58.1 °F 52.3 °F 81% 29.92 in 10.0 mi South 12.7 mph - N/A Thunderstorm Mostly Cloudy
11:35 AM 60.6 °F 54.1 °F 79% 29.90 in 10.0 mi SSE 13.8 mph - N/A   Scattered Clouds
11:55 AM 60.1 °F 54.7 °F 82% 29.90 in 10.0 mi SSE 12.7 mph - N/A Rain Light Rain
12:15 PM 59.9 °F 54.5 °F 82% 29.86 in 10.0 mi SE 12.7 mph - N/A Rain Light Rain
12:35 PM 61.9 °F 55.8 °F 80% 29.88 in 10.0 mi SSE 15.0 mph 20.7 mph N/A Thunderstorm Scattered Clouds
12:55 PM 62.6 °F 55.8 °F 78% 29.86 in 10.0 mi SSE 11.5 mph - N/A Thunderstorm Clear
1:15 PM 63.0 °F 56.3 °F 79% 29.85 in 10.0 mi SSE 10.4 mph - N/A Rain , Thunderstorm Light Thunderstorms and Rain
1:35 PM 64.8 °F 57.4 °F 77% 29.85 in 10.0 mi SSE 17.3 mph - N/A   Scattered Clouds
1:55 PM 64.4 °F 56.8 °F 76% 29.86 in 10.0 mi South 20.7 mph - N/A   Clear
2:15 PM 65.1 °F 57.2 °F 75% 29.85 in 10.0 mi South 18.4 mph 27.6 mph N/A   Clear
2:35 PM 66.2 °F 57.7 °F 74% 29.85 in 10.0 mi SSE 16.1 mph - N/A   Clear
2:55 PM 64.4 °F 57.4 °F 78% 29.85 in 10.0 mi SSE 18.4 mph 24.2 mph N/A   Clear
3:15 PM 64.0 °F 57.7 °F 80% 29.86 in 10.0 mi SSE 13.8 mph 23.0 mph N/A   Clear
3:35 PM 63.1 °F 58.1 °F 84% 29.86 in 10.0 mi SSE 11.5 mph - N/A   Light Drizzle
4:15 PM 63.0 °F 58.1 °F 84% 29.87 in 10.0 mi South 9.2 mph - N/A   Clear
4:35 PM 62.6 °F 57.2 °F 82% 29.87 in 10.0 mi South 13.8 mph - N/A   Clear
4:55 PM 62.6 °F 57.4 °F 83% 29.87 in 10.0 mi SSE 12.7 mph - N/A   Clear
5:15 PM 63.9 °F 57.2 °F 79% 29.87 in 10.0 mi SSE 15.0 mph - N/A   Clear
5:35 PM 63.7 °F 56.7 °F 78% 29.87 in 10.0 mi SSE 15.0 mph - N/A   Clear
5:55 PM 63.3 °F 56.3 °F 78% 29.88 in 10.0 mi SSE 17.3 mph - N/A   Clear
6:15 PM 63.0 °F 55.4 °F 76% 29.88 in 10.0 mi SSE 17.3 mph - N/A   Clear
6:35 PM 61.9 °F 54.5 °F 77% 29.89 in 10.0 mi SSE 16.1 mph - N/A   Clear
6:55 PM 61.9 °F 52.3 °F 71% 29.88 in 10.0 mi SSE 16.1 mph - N/A   Clear
7:15 PM 61.0 °F 52.0 °F 72% 29.88 in 10.0 mi SSE 18.4 mph - N/A   Clear
7:35 PM 60.4 °F 51.4 °F 72% 29.88 in 10.0 mi SSE 13.8 mph - N/A   Clear
7:55 PM 59.2 °F 51.1 °F 74% 29.88 in 10.0 mi SSE 13.8 mph - N/A   Clear
8:15 PM 59.4 °F 51.3 °F 75% 29.88 in 10.0 mi SSE 16.1 mph 23.0 mph N/A   Clear
8:55 PM 61.0 °F 52.3 °F 73% 29.87 in 10.0 mi South 28.8 mph 32.2 mph N/A   Clear
9:15 PM 61.0 °F 52.7 °F 74% 29.87 in 10.0 mi South 25.3 mph 31.1 mph N/A   Clear
9:35 PM 60.8 °F 52.9 °F 75% 29.87 in 10.0 mi South 25.3 mph 31.1 mph N/A   Clear
9:55 PM 60.8 °F 53.6 °F 77% 29.87 in 10.0 mi South 20.7 mph 26.5 mph N/A   Clear
10:15 PM 59.9 °F 52.7 °F 77% 29.87 in 10.0 mi South 21.9 mph - N/A   Clear
10:35 PM 59.5 °F 52.7 °F 78% 29.87 in 10.0 mi South 18.4 mph - N/A   Clear
10:55 PM 59.5 °F 52.7 °F 78% 29.88 in 10.0 mi South 18.4 mph 25.3 mph N/A   Clear
11:15 PM 59.7 °F 52.3 °F 77% 29.88 in 10.0 mi South 19.6 mph 26.5 mph N/A   Clear
11:35 PM 60.4 °F 51.8 °F 73% 29.88 in 10.0 mi South 24.2 mph 28.8 mph N/A   Clear
11:55 PM 60.8 °F 51.1 °F 70% 29.87 in 10.0 mi South 26.5 mph 31.1 mph N/A   Clear